Regional Weather Roundup
Issued by NWS

Home | Current Version | Previous Version | Graphics & Text | Print | Product List | Glossary On
Versions: 1 2 3 4 5 6 7 8 9 10 11 12 13 14 15 16 17 18 19 20 21 22 23 24 25 26 27 28 29 30 31 32 33 34 35 36 37 38 39 40 41 42 43 44 45 46 47 48 49 50
000
ASUS43 KDTX 281010
RWRMI
MICHIGAN HOURLY REGIONAL WEATHER ROUNDUP
NATIONAL WEATHER SERVICE DETROIT/PONTIAC MI
ISSUED BY NATIONAL WEATHER SERVICE GRAND RAPIDS MI
600 AM EDT FRI JUL 28 2017

NOTE: "FAIR" INDICATES FEW OR NO CLOUDS BELOW 12,000 FEET WITH NO
SIGNIFICANT WEATHER AND/OR OBSTRUCTION TO VISIBILITY.

MIZ047>049-052>055-059>063-066>070-074>076-081>083-281100-
SOUTHEAST LOWER MICHIGAN

CITY           SKY/WX    TMP DP  RH WIND       PRES   REMARKS
ADRIAN         CLOUDY    62  58  86 NE8       29.94R
ALMA           MOCLDY    62  60  93 N6        30.01R
ANN ARBOR      PTCLDY    62  59  90 N8        29.93S
BAD AXE        PTCLDY    60  59  95 N5        30.00R
DETROIT CITY   PTCLDY    64  61  90 N7        29.93S
DETROIT        CLOUDY    65  61  87 N8        29.93S
FLINT          CLOUDY    61  58  90 N5        29.97R
GROSSE ILE     MOCLDY    66  61  84 N8        29.91S
HILLSDALE      CLOUDY    63  57  82 N5        29.94S
HOWELL         CLOUDY    60  58  94 N3        29.97R

CITY           SKY/WX    TMP DP  RH WIND       PRES   REMARKS
JACKSON        LGT RAIN  62  58  86 NE5       29.96R
LANSING        CLOUDY    61  57  87 N3        29.98R
MASON          CLOUDY    60  58  95 CALM      29.97R
MONROE         MOCLDY    62  60  94 CALM      29.91S
MT. CLEMENS    CLOUDY    62  62 100 N6        29.92S
PONTIAC        CLOUDY    63  60  90 N6        29.94S
PORT HOPE        N/A     68  61  78 NE16      29.99R
PORT HURON     CLOUDY    66  61  82 N5        29.94S
TRI CITIES     CLOUDY    62  61  96 N9        30.00R
YPSILANTI      MOCLDY    63  60  90 N7        29.94R
$$
MIZ043>046-050>051-056>058-064>065-071>073-077>080-281100-
SOUTHWEST LOWER MICHIGAN

CITY           SKY/WX    TMP DP  RH WIND       PRES   REMARKS
BATTLE CREEK   PTCLDY    62  60  93 NE9       29.96S
BENTON HARBOR  MOCLDY    66  59  78 E7        29.94R
BIG RAPIDS     CLOUDY    61  59  92 NW5       30.02R
COLDWATER      PTCLDY    64  61  91 NE9       29.94S
HOLLAND        PTCLDY    66  57  72 E5        29.97S
GRAND RAPIDS   MOCLDY    63  60  90 NE5       29.97F
KALAMAZOO      PTCLDY    65  58  78 NE6       29.96R
MARSHALL       PTCLDY    62  62  98 N3        29.95S
MOUNT PLEASANT CLOUDY    63  60  90 N5        30.01R
MUSKEGON       MOCLDY    65  60  84 NE5       29.98S
STURGIS        CLOUDY    65  62  88 MISG      29.94R
$$
MIZ016>042-281100-
NORTHERN LOWER MICHIGAN

CITY           SKY/WX    TMP DP  RH WIND       PRES   REMARKS
ALPENA         PTCLDY    61  60  97 E3        30.04R
BEAVER ISLAND  MOCLDY    63  58  82 E6        30.06R
BELLAIRE       PTCLDY    54  52  95 CALM      30.03S
CADILLAC       CLOUDY    56  53  88 S3        30.03F
CHARLEVOIX     PTCLDY    64  56  76 E6        30.06R
GAYLORD        PTCLDY    60  54  80 NE5       30.04S
HOUGHTON LAKE  PTCLDY    55  53  93 E5        30.04R
MANISTEE       PTCLDY    59  57  93 NE3       30.02R
OSCODA         CLOUDY    60  58  94 NW3       30.02R
PELLSTON       MOCLDY    54  53  97 CALM      30.05R
TRAVERSE CITY  CLEAR     59  56  89 CALM      30.02R
LUDINGTON      CLOUDY    58  57  97 CALM      30.01S
$$
MIZ007>008-015-281100-
EASTERN UPPER MICHIGAN

CITY           SKY/WX    TMP DP  RH WIND       PRES   REMARKS
KINROSS        CLOUDY    60  54  80 NE7       30.08R
MACKINAC ISLAN CLOUDY    63  57  81 NE9       30.05S
NEWBERRY       CLOUDY    54  53  97 N5        30.08R
S. S. MARIE    CLOUDY    62  52  69 NE3       30.08R
$$
MIZ004>006-011>014-085-281100-
CENTRAL UPPER MICHIGAN

CITY           SKY/WX    TMP DP  RH WIND       PRES   REMARKS
MANISTIQUE     CLOUDY    55  52  89 N7        30.06S
ESCANABA       PTCLDY    57  53  86 N5        30.06S
MENOMINEE      CLEAR     55  52  89 VRB3      30.07R
SAWYER-GWINN   CLEAR     54  52  93 N5        30.10F
$$
MIZ001>003-009>011-084-281100-
WESTERN UPPER MICHIGAN

CITY           SKY/WX    TMP DP  RH WIND       PRES   REMARKS
HOUGHTON       CLEAR     55  49  80 N3        30.11R
COPPER HARBOR    N/A     55  51  86 SW7       30.10S
IRONWOOD       CLEAR     50  49  96 CALM      30.13R FOG
$$

ABBREVIATIONS USED IN REMARKS
   TC - TEMPERATURE IN CELSIUS
  WCI - WIND CHILL INDEX
   HX - HEAT INDEX
  VSB - VISIBILITY




USA.gov is the U.S. government's official web portal to all federal, state and local government web resources and services.